User: anonymous   Login
Location: Unspecified
(0.0000°N, 0.0000°E)
Time: 02:55:08
(UTC+00:00)
Language:

DMSP B5D2-6 - Orbit

View from above orbital plane
View from above orbital plane
View from above satellite
View from above satellite

Ground track
Ground track

The orbit data is extracted from the following two-line orbital elements,

1 21798U 91082A   18317.71009922 0.00000150  00000-0  75343-4 0    02
2 21798  98.9311 324.9853 0014000 264.1680  95.8319 14.16515686    04
Epoch (UTC): 13 November 2018 17:02:32
Eccentricity: 0.0014000
inclination: 98.9311°
perigee height: 827 km
apogee height: 847 km
right ascension of ascending node: 324.9853°
argument of perigee: 264.1680°
revolutions per day: 14.16515686
mean anomaly at epoch: 95.8319°
orbit number at epoch: 0

The dashed part of the orbit path shows where the satellite is in the earth's shadow,  

DLR